• In Uzbekistan
  • List of Countries
  • For 7 days
  • Water Temperature
  • Satellite Maps
  • Weather Map
  • Weather Widgets
  • user-avatar
    Login

    Hourly Weather Lankaran

    Today, 17 October, Tuesday

    Time Temperature Precipitation Wind Pressure Humidity
    00:00 +4°C° 2.2 mm 3 mps 631 mmHg 87%
    01:00 +4°C° 0.3 mm 3 mps 632 mmHg 86%
    02:00 +5°C° 0.3 mm 2 mps 632 mmHg 85%
    03:00 +4°C° 0 mm 2 mps 632 mmHg 86%
    04:00 +4°C° 0.1 mm 2 mps 632 mmHg 82%
    05:00 +4°C° 0.1 mm 2 mps 633 mmHg 78%
    06:00 +5°C° 0.1 mm 1 mps 633 mmHg 73%
    07:00 +5°C° 0 mm 2 mps 634 mmHg 64%
    08:00 +6°C° 0 mm 2 mps 634 mmHg 54%
    09:00 +7°C° 0 mm 3 mps 635 mmHg 42%
    10:00 +8°C° 0 mm 3 mps 635 mmHg 40%
    11:00 +9°C° 0 mm 3 mps 635 mmHg 38%
    12:00 +10°C° 0 mm 3 mps 636 mmHg 37%
    13:00 +10°C° 0 mm 3 mps 636 mmHg 39%
    14:00 +10°C° 0 mm 3 mps 636 mmHg 41%
    15:00 +10°C° 0 mm 3 mps 636 mmHg 44%
    16:00 +9°C° 0 mm 3 mps 635 mmHg 52%
    17:00 +8°C° 0 mm 3 mps 635 mmHg 61%
    18:00 +7°C° 0 mm 2 mps 635 mmHg 69%
    19:00 +6°C° 0 mm 2 mps 635 mmHg 70%
    20:00 +6°C° 0 mm 2 mps 635 mmHg 70%
    21:00 +6°C° 0 mm 2 mps 635 mmHg 70%
    22:00 +6°C° 0 mm 2 mps 635 mmHg 67%
    23:00 +6°C° 0 mm 2 mps 635 mmHg 64%

    Tomorrow, 18 October, Wednesday

    Time Temperature Precipitation Wind Pressure Humidity
    00:00 +5°C° 0 mm 2 mps 635 mmHg 61%
    01:00 +5°C° 0 mm 2 mps 635 mmHg 58%
    02:00 +6°C° 0 mm 1 mps 636 mmHg 56%
    03:00 +6°C° 0 mm 1 mps 636 mmHg 53%
    04:00 +6°C° 0 mm 1 mps 636 mmHg 53%
    05:00 +6°C° 0 mm 1 mps 636 mmHg 54%
    06:00 +6°C° 0 mm 1 mps 636 mmHg 54%
    07:00 +8°C° 0 mm 1 mps 637 mmHg 51%
    08:00 +9°C° 0 mm 2 mps 638 mmHg 48%
    09:00 +12°C° 0 mm 2 mps 639 mmHg 44%
    10:00 +12°C° 0 mm 2 mps 639 mmHg 42%
    11:00 +12°C° 0 mm 3 mps 639 mmHg 40%
    12:00 +13°C° 0 mm 3 mps 639 mmHg 38%
    13:00 +13°C° 0 mm 3 mps 639 mmHg 39%
    14:00 +13°C° 0 mm 3 mps 639 mmHg 40%
    15:00 +13°C° 0 mm 3 mps 639 mmHg 41%
    16:00 +11°C° 0 mm 3 mps 639 mmHg 48%
    17:00 +9°C° 0 mm 3 mps 638 mmHg 54%
    18:00 +8°C° 0 mm 3 mps 638 mmHg 61%
    19:00 +7°C° 0 mm 2 mps 638 mmHg 62%
    20:00 +7°C° 0 mm 2 mps 638 mmHg 62%
    21:00 +6°C° 0 mm 2 mps 639 mmHg 62%
    22:00 +6°C° 0 mm 2 mps 638 mmHg 64%
    23:00 +6°C° 0 mm 2 mps 638 mmHg 65%

    Day after tomorrow, 19 October, Thursday

    Time Temperature Precipitation Wind Pressure Humidity
    00:00 +6°C° 0 mm 2 mps 638 mmHg 67%
    01:00 +5°C° 0 mm 2 mps 638 mmHg 69%
    02:00 +6°C° 0 mm 1 mps 638 mmHg 71%
    03:00 +6°C° 0 mm 1 mps 638 mmHg 73%
    04:00 +6°C° 0 mm 1 mps 637 mmHg 74%
    05:00 +6°C° 0 mm 1 mps 637 mmHg 75%
    06:00 +5°C° 0 mm 1 mps 637 mmHg 76%
    07:00 +7°C° 0 mm 1 mps 638 mmHg 70%
    08:00 +9°C° 0 mm 1 mps 639 mmHg 64%
    09:00 +10°C° 0 mm 2 mps 639 mmHg 58%
    10:00 +12°C° 0 mm 2 mps 639 mmHg 54%
    11:00 +13°C° 0 mm 2 mps 639 mmHg 51%
    12:00 +15°C° 0 mm 2 mps 639 mmHg 48%
    13:00 +13°C° 0 mm 3 mps 638 mmHg 51%
    14:00 +13°C° 0 mm 3 mps 638 mmHg 54%
    15:00 +13°C° 0 mm 3 mps 638 mmHg 57%
    16:00 +12°C° 0 mm 3 mps 637 mmHg 64%
    17:00 +12°C° 0 mm 2 mps 637 mmHg 72%
    18:00 +10°C° 0 mm 2 mps 637 mmHg 79%
    19:00 +9°C° 0 mm 2 mps 637 mmHg 81%
    20:00 +9°C° 0 mm 2 mps 637 mmHg 82%
    21:00 +9°C° 0 mm 1 mps 636 mmHg 84%
    22:00 +9°C° 0 mm 1 mps 636 mmHg 83%
    23:00 +9°C° 0 mm 1 mps 636 mmHg 82%

    20 October, Friday

    Time Temperature Precipitation Wind Pressure Humidity
    00:00 +8°C° 0 mm 1 mps 635 mmHg 81%
    01:00 +8°C° 0 mm 1 mps 635 mmHg 80%
    02:00 +8°C° 0 mm 1 mps 635 mmHg 79%
    03:00 +7°C° 0 mm 1 mps 634 mmHg 78%
    04:00 +7°C° 0 mm 1 mps 634 mmHg 79%
    05:00 +7°C° 0 mm 1 mps 634 mmHg 79%
    06:00 +6°C° 0 mm 1 mps 634 mmHg 80%
    07:00 +9°C° 0 mm 1 mps 635 mmHg 71%
    08:00 +11°C° 0 mm 1 mps 636 mmHg 63%
    09:00 +13°C° 0 mm 2 mps 636 mmHg 54%
    10:00 +14°C° 0 mm 2 mps 636 mmHg 50%
    11:00 +15°C° 0 mm 2 mps 636 mmHg 46%
    12:00 +15°C° 0 mm 2 mps 636 mmHg 42%
    13:00 +15°C° 0 mm 2 mps 636 mmHg 44%
    14:00 +15°C° 0 mm 2 mps 635 mmHg 46%
    15:00 +15°C° 0 mm 2 mps 635 mmHg 49%
    16:00 +14°C° 0 mm 2 mps 635 mmHg 57%
    17:00 +12°C° 0 mm 1 mps 635 mmHg 65%
    18:00 +11°C° 0 mm 1 mps 635 mmHg 74%
    19:00 +11°C° 0 mm 1 mps 635 mmHg 75%
    20:00 +10°C° 0 mm 1 mps 635 mmHg 76%
    21:00 +10°C° 0 mm 1 mps 635 mmHg 77%
    22:00 +9°C° 0 mm 1 mps 635 mmHg 75%
    23:00 +9°C° 0 mm 1 mps 635 mmHg 73%

    21 October, Saturday

    Time Temperature Precipitation Wind Pressure Humidity
    00:00 +9°C° 0 mm 1 mps 634 mmHg 70%
    01:00 +8°C° 0 mm 1 mps 634 mmHg 67%
    02:00 +8°C° 0 mm 1 mps 634 mmHg 64%
    03:00 +8°C° 0 mm 1 mps 634 mmHg 61%
    04:00 +7°C° 0 mm 1 mps 634 mmHg 58%
    05:00 +7°C° 0 mm 1 mps 634 mmHg 56%
    06:00 +7°C° 0 mm 1 mps 634 mmHg 53%
    07:00 +9°C° 0 mm 1 mps 635 mmHg 47%
    08:00 +11°C° 0 mm 1 mps 636 mmHg 41%
    09:00 +13°C° 0 mm 1 mps 637 mmHg 34%
    10:00 +14°C° 0 mm 1 mps 636 mmHg 34%
    11:00 +14°C° 0 mm 1 mps 636 mmHg 34%
    12:00 +15°C° 0 mm 2 mps 636 mmHg 34%
    13:00 +15°C° 0 mm 2 mps 636 mmHg 37%
    14:00 +15°C° 0 mm 2 mps 636 mmHg 39%
    15:00 +15°C° 0 mm 2 mps 635 mmHg 42%
    16:00 +13°C° 0 mm 2 mps 635 mmHg 50%
    17:00 +12°C° 0 mm 1 mps 635 mmHg 59%
    18:00 +10°C° 0 mm 1 mps 635 mmHg 68%
    19:00 +10°C° 0 mm 1 mps 635 mmHg 68%
    20:00 +10°C° 0 mm 1 mps 635 mmHg 69%
    21:00 +9°C° 0 mm 1 mps 635 mmHg 69%
    22:00 +9°C° 0 mm 1 mps 634 mmHg 66%
    23:00 +9°C° 0 mm 1 mps 634 mmHg 63%

    22 October, Sunday

    Time Temperature Precipitation Wind Pressure Humidity
    00:00 +8°C° 0 mm 1 mps 634 mmHg 60%
    01:00 +8°C° 0 mm 1 mps 634 mmHg 56%
    02:00 +8°C° 0 mm 1 mps 633 mmHg 52%
    03:00 +8°C° 0 mm 1 mps 633 mmHg 48%
    04:00 +7°C° 0 mm 1 mps 633 mmHg 45%
    05:00 +6°C° 0 mm 2 mps 633 mmHg 41%
    06:00 +6°C° 0 mm 2 mps 633 mmHg 38%
    07:00 +8°C° 0 mm 2 mps 634 mmHg 34%
    08:00 +10°C° 0 mm 2 mps 634 mmHg 29%
    09:00 +14°C° 0 mm 2 mps 635 mmHg 25%
    10:00 +13°C° 0 mm 3 mps 634 mmHg 26%
    11:00 +14°C° 0 mm 3 mps 634 mmHg 26%
    12:00 +16°C° 0 mm 3 mps 634 mmHg 27%
    13:00 +16°C° 0 mm 3 mps 633 mmHg 28%
    14:00 +16°C° 0 mm 3 mps 633 mmHg 29%
    15:00 +15°C° 0 mm 4 mps 632 mmHg 31%
    16:00 +14°C° 0 mm 3 mps 632 mmHg 35%
    17:00 +12°C° 0 mm 3 mps 631 mmHg 40%
    18:00 +12°C° 0 mm 2 mps 631 mmHg 44%
    19:00 +10°C° 0 mm 2 mps 631 mmHg 41%
    20:00 +10°C° 0 mm 2 mps 631 mmHg 37%
    21:00 +10°C° 0 mm 2 mps 631 mmHg 34%
    22:00 +10°C° 0 mm 2 mps 631 mmHg 30%
    23:00 +9°C° 0 mm 2 mps 630 mmHg 26%
    Show more